CAPE-3 (47309 NORAD) Tracking and Keplerian Element Data

This shows tracking and keplerian element data for the satellite.

Feedback or suggestion? Click here.




ElementValue
Catalog47309
NameCAPE-3
Epoch Orbit650
Epoch Day60.74030407
Epoch Year2021
RAAN334.532
Inclination60.6885
Eccentricity0.0022391
Argument of Perigee335.0875
Mean Anonmoly24.9128
Mean Motion15.20402166
Decay Rate1.341E-05
L11 47309U 21002A 21060.74030407 .00001341 00000-0 72982-4 0 9993
L22 47309 60.6885 334.5320 0022391 335.0875 24.9128 15.20402166 6500

Live tracking and technical data element details for CAPE-3 (NORAD 47309). CAPE-3 can be tracked NOW for your location showing map with azimuth and elevation plus other details from your city location.

Track the satellite on the map from your city or location and see movement details for azimuth, elevation, latitude, longitude, range, height, and movement on the map or in text.







IsCatalogInMostPopularTable: catalog: 47309, numindb: 13
Update: records affected: 1



GetName: 47309 CAPE-3

Hit Count: updated at: Tue, 02 Mar 2021 13:33:51 GMT